Ocean Jupiter — CFK3107 — position and weather

sailwx.info

Track history (hours):
 
Tides and Currents Weather Stations Pressure Air Temp Water Temp Dewpoint Dewpoint Depression Visibility Wind Speed Wind Dir Waves Ship Positions

Ocean Jupiter

Last reported at 2014-Jul-23 05:16 UTC. Time now 2014-Jul-23 09:50 UTC.
Position N 46°03' W 073°08'.

Length 24 m; draft 3.2 m.

Type: Tug. MMSI: 316008255.

Date/timePositionNaut miles runAvg speedWind from/ knotsBaromVisibWave heightAir tempDewpointWater temp
2014-Jul-23 05:16N 46°03' W 073°08'0 0.1
2014-Jul-23 04:33N 46°03' W 073°08'0 0.4
2014-Jul-23 03:23N 46°03' W 073°08'0 0.0
2014-Jul-21 03:19N 46°03' W 073°08'2 0.1
2014-Jul-20 11:33N 46°03' W 073°06'27 1.0
2014-Jul-19 09:03N 46°18' W 072°34'1912.1
2014-Jul-19 07:32N 46°09' W 072°57'9 2.0
2014-Jul-19 03:04N 46°03' W 073°07'1 0.6
2014-Jul-19 01:29N 46°03' W 073°08'0 0.4
2014-Jul-19 00:33N 46°03' W 073°08'0 0.0
2014-Jul-18 04:33N 46°03' W 073°08'5 0.3
2014-Jul-17 13:05N 45°58' W 073°12'5 9.4
2014-Jul-17 12:33N 45°54' W 073°14'4 4.3
2014-Jul-17 11:33N 45°50' W 073°17'1 0.7
2014-Jul-17 10:34N 45°51' W 073°17'8 7.6
2014-Jul-17 09:33N 45°58' W 073°12'6 1.0
2014-Jul-17 03:22N 46°03' W 073°08'0 0.1
2014-Jul-17 02:33N 46°03' W 073°08'1 0.0
2014-Jul-15 09:26N 46°03' W 073°07'10 2.0
2014-Jul-15 04:33N 45°54' W 073°13'5 5.2
2014-Jul-15 03:34N 45°50' W 073°17'1 1.3
2014-Jul-15 02:34N 45°51' W 073°16'8 8.2
2014-Jul-15 01:33N 45°58' W 073°12'2 0.0
2014-Jul-13 13:09N 46°00' W 073°11'711.3
2014-Jul-13 12:33N 45°54' W 073°14'4 4.3
2014-Jul-13 11:34N 45°50' W 073°17'0 0.1
2014-Jul-13 10:34N 45°50' W 073°17'0 0.0
2014-Jul-13 09:34N 45°50' W 073°17'4 4.3
2014-Jul-13 08:34N 45°54' W 073°14'8 8.4
2014-Jul-13 07:33N 46°02' W 073°10'  
Track history (hours):
 
Tides and Currents Weather Stations Pressure Air Temp Water Temp Dewpoint Dewpoint Depression Visibility Wind Speed Wind Dir Waves Ship Positions

Ocean Jupiter

Last reported at 2014-Jul-23 05:16 UTC. Time now 2014-Jul-23 09:50 UTC.
Position N 46°03' W 073°08'.

Length 24 m; draft 3.2 m.

Type: Tug. MMSI: 316008255.

Date/timePositionNaut miles runAvg speedWind from/ knotsBaromVisibWave heightAir tempDewpointWater temp
2014-Jul-23 05:16N 46°03' W 073°08'0 0.1
2014-Jul-23 04:33N 46°03' W 073°08'0 0.4
2014-Jul-23 03:23N 46°03' W 073°08'0 0.0
2014-Jul-21 03:19N 46°03' W 073°08'2 0.1
2014-Jul-20 11:33N 46°03' W 073°06'27 1.0
2014-Jul-19 09:03N 46°18' W 072°34'1912.1
2014-Jul-19 07:32N 46°09' W 072°57'9 2.0
2014-Jul-19 03:04N 46°03' W 073°07'1 0.6
2014-Jul-19 01:29N 46°03' W 073°08'0 0.4
2014-Jul-19 00:33N 46°03' W 073°08'0 0.0
2014-Jul-18 04:33N 46°03' W 073°08'5 0.3
2014-Jul-17 13:05N 45°58' W 073°12'5 9.4
2014-Jul-17 12:33N 45°54' W 073°14'4 4.3
2014-Jul-17 11:33N 45°50' W 073°17'1 0.7
2014-Jul-17 10:34N 45°51' W 073°17'8 7.6
2014-Jul-17 09:33N 45°58' W 073°12'6 1.0
2014-Jul-17 03:22N 46°03' W 073°08'0 0.1
2014-Jul-17 02:33N 46°03' W 073°08'1 0.0
2014-Jul-15 09:26N 46°03' W 073°07'10 2.0
2014-Jul-15 04:33N 45°54' W 073°13'5 5.2
2014-Jul-15 03:34N 45°50' W 073°17'1 1.3
2014-Jul-15 02:34N 45°51' W 073°16'8 8.2
2014-Jul-15 01:33N 45°58' W 073°12'2 0.0
2014-Jul-13 13:09N 46°00' W 073°11'711.3
2014-Jul-13 12:33N 45°54' W 073°14'4 4.3
2014-Jul-13 11:34N 45°50' W 073°17'0 0.1
2014-Jul-13 10:34N 45°50' W 073°17'0 0.0
2014-Jul-13 09:34N 45°50' W 073°17'4 4.3
2014-Jul-13 08:34N 45°54' W 073°14'8 8.4
2014-Jul-13 07:33N 46°02' W 073°10'  

Dump ship's entire track history